ASTRA 4A (SIRIUS 4)

Last updated on Sept. 28, 2020, 5:45 a.m. UTC

1 32299U 07057A   20271.84659323  .00000010  00000-0  00000-0 0  9997
2 32299   0.0447  85.8407 0003198  92.5099 138.3190  1.00272199 30749
UTC
Height (km)
Latitude
Longitude
Inclination
Orbital Period
UTC large
Height (km)
Speed (km/s)
/
Latitude / Longitude
Inclination (degrees)
Orbital Period (minutes)
Azimuth
Elevation
Range (km)
Doppler Factor
iOS Compass Heading
iOS Angle

Next 30 passes for location: Hong Kong

Rise time Rise Azimuth (degrees) Set time Set Azimuth (degrees) Duration Max altitude (degrees)

No matching passes for this satellites